Time,TemperatureF,DewpointF,PressureIn,WindDirection,WindDirectionDegrees,WindSpeedMPH,WindSpeedGustMPH,Humidity,HourlyPrecipIn,Conditions,Clouds,dailyrainin,SoftwareType,DateUTC
2013-02-17 00:02:00,22.0,17.0,-100.00,SE,125,8.0,12.0,81,0.00,,,-99.99,,2013-02-17 06:02:00,
2013-02-17 00:11:00,22.0,18.0,-100.00,ESE,115,8.0,11.0,83,0.00,,,-99.99,,2013-02-17 06:11:00,
2013-02-17 00:21:00,22.0,17.0,-100.00,ESE,120,9.0,11.0,83,0.00,,,-99.99,,2013-02-17 06:21:00,
2013-02-17 00:31:00,21.0,17.0,-100.00,SE,125,8.0,10.0,85,0.00,,,-99.99,,2013-02-17 06:31:00,
2013-02-17 00:41:00,21.0,17.0,-100.00,SE,125,8.0,10.0,85,0.00,,,-99.99,,2013-02-17 06:41:00,
2013-02-17 00:51:00,21.0,18.0,-100.00,SE,130,7.0,11.0,86,0.00,,,-99.99,,2013-02-17 06:51:00,
2013-02-17 01:01:00,21.0,18.0,-100.00,SE,130,7.0,11.0,86,0.00,,,-99.99,,2013-02-17 07:01:00,
2013-02-17 01:11:00,21.0,18.0,-100.00,SE,125,7.0,10.0,87,0.00,,,-99.99,,2013-02-17 07:11:00,
2013-02-17 01:21:00,21.0,18.0,-100.00,ESE,120,8.0,10.0,87,0.00,,,-99.99,,2013-02-17 07:21:00,
2013-02-17 01:31:00,21.0,18.0,-100.00,SE,125,8.0,10.0,87,0.00,,,-99.99,,2013-02-17 07:31:00,
2013-02-17 01:41:00,21.0,18.0,-100.00,SE,125,8.0,10.0,87,0.00,,,-99.99,,2013-02-17 07:41:00,
2013-02-17 01:51:00,21.0,18.0,-100.00,SE,125,8.0,11.0,88,0.00,,,-99.99,,2013-02-17 07:51:00,
2013-02-17 02:01:00,21.0,18.0,-100.00,SE,125,8.0,11.0,88,0.00,,,-99.99,,2013-02-17 08:01:00,
2013-02-17 02:11:00,21.0,18.0,-100.00,SE,125,7.0,11.0,88,0.00,,,-99.99,,2013-02-17 08:11:00,
2013-02-17 02:21:00,21.0,18.0,-100.00,SE,125,7.0,10.0,88,0.00,,,-99.99,,2013-02-17 08:21:00,
2013-02-17 02:31:00,20.0,18.0,-100.00,ESE,110,7.0,10.0,88,0.00,,,-99.99,,2013-02-17 08:31:00,
2013-02-17 02:42:00,20.0,18.0,-100.00,ESE,110,7.0,10.0,88,0.00,,,-99.99,,2013-02-17 08:42:00,
2013-02-17 02:52:00,20.0,17.0,-100.00,East,100,7.0,9.0,89,0.00,,,-99.99,,2013-02-17 08:52:00,
2013-02-17 03:01:00,20.0,17.0,-100.00,East,100,7.0,9.0,89,0.00,,,-99.99,,2013-02-17 09:01:00,
2013-02-17 03:11:00,20.0,17.0,-100.00,ESE,110,9.0,11.0,89,0.00,,,-99.99,,2013-02-17 09:11:00,
2013-02-17 03:21:00,20.0,18.0,-100.00,East,100,9.0,11.0,89,0.00,,,-99.99,,2013-02-17 09:21:00,
2013-02-17 03:31:00,20.0,17.0,-100.00,ESE,110,9.0,12.0,90,0.00,,,-99.99,,2013-02-17 09:31:00,
2013-02-17 03:41:00,20.0,17.0,-100.00,ESE,110,9.0,12.0,90,0.00,,,-99.99,,2013-02-17 09:41:00,
2013-02-17 03:51:00,20.0,18.0,-100.00,ESE,115,11.0,13.0,90,0.00,,,-99.99,,2013-02-17 09:51:00,
2013-02-17 04:01:00,20.0,18.0,-100.00,ESE,115,11.0,13.0,90,0.00,,,-99.99,,2013-02-17 10:01:00,
2013-02-17 04:11:00,20.0,18.0,-100.00,ESE,115,11.0,14.0,90,0.00,,,-99.99,,2013-02-17 10:11:00,
2013-02-17 04:21:00,20.0,18.0,-100.00,ESE,115,11.0,15.0,90,0.00,,,-99.99,,2013-02-17 10:21:00,
2013-02-17 04:31:00,20.0,18.0,-100.00,ESE,120,10.0,12.0,90,0.00,,,-99.99,,2013-02-17 10:31:00,
2013-02-17 04:41:00,20.0,18.0,-100.00,ESE,120,10.0,12.0,90,0.00,,,-99.99,,2013-02-17 10:41:00,
2013-02-17 04:51:00,20.0,17.0,-100.00,ESE,115,8.0,11.0,90,0.00,,,-99.99,,2013-02-17 10:51:00,
2013-02-17 05:01:00,20.0,17.0,-100.00,ESE,115,8.0,11.0,90,0.00,,,-99.99,,2013-02-17 11:01:00,
2013-02-17 05:11:00,20.0,17.0,-100.00,ESE,110,7.0,11.0,90,0.00,,,-99.99,,2013-02-17 11:11:00,
2013-02-17 05:21:00,19.0,17.0,-100.00,ESE,110,7.0,11.0,91,0.00,,,-99.99,,2013-02-17 11:21:00,
2013-02-17 05:32:00,19.0,17.0,-100.00,ESE,105,9.0,12.0,91,0.00,,,-99.99,,2013-02-17 11:32:00,
2013-02-17 05:41:00,19.0,17.0,-100.00,ESE,105,9.0,12.0,91,0.00,,,-99.99,,2013-02-17 11:41:00,
2013-02-17 05:52:00,19.0,17.0,-100.00,ESE,115,9.0,14.0,92,0.00,,,-99.99,,2013-02-17 11:52:00,
2013-02-17 06:03:00,19.0,17.0,-100.00,ESE,115,9.0,14.0,92,0.00,,,-99.99,,2013-02-17 12:03:00,
2013-02-17 06:11:00,19.0,18.0,-100.00,ESE,115,8.0,13.0,92,0.00,,,-99.99,,2013-02-17 12:11:00,
2013-02-17 06:22:00,19.0,17.0,-100.00,ESE,115,10.0,13.0,92,0.00,,,-99.99,,2013-02-17 12:22:00,
2013-02-17 06:32:00,19.0,17.0,-100.00,ESE,110,10.0,14.0,92,0.00,,,-99.99,,2013-02-17 12:32:00,
2013-02-17 06:42:00,19.0,17.0,-100.00,ESE,110,10.0,14.0,92,0.00,,,-99.99,,2013-02-17 12:42:00,
2013-02-17 06:52:00,19.0,17.0,-100.00,ESE,115,11.0,15.0,92,0.00,,,-99.99,,2013-02-17 12:52:00,
2013-02-17 07:02:00,19.0,17.0,-100.00,ESE,115,11.0,15.0,92,0.00,,,-99.99,,2013-02-17 13:02:00,
2013-02-17 07:12:00,19.0,17.0,-100.00,ESE,115,12.0,15.0,92,0.00,,,-99.99,,2013-02-17 13:12:00,
2013-02-17 07:21:00,19.0,17.0,-100.00,ESE,115,11.0,16.0,92,0.00,,,-99.99,,2013-02-17 13:21:00,
2013-02-17 07:32:00,19.0,17.0,-100.00,ESE,115,9.0,12.0,92,0.00,,,-99.99,,2013-02-17 13:32:00,
2013-02-17 07:41:00,19.0,17.0,-100.00,ESE,115,9.0,12.0,92,0.00,,,-99.99,,2013-02-17 13:41:00,
2013-02-17 07:51:00,20.0,18.0,-100.00,SE,125,12.0,14.0,92,0.00,,,-99.99,,2013-02-17 13:51:00,
2013-02-17 08:01:00,20.0,18.0,-100.00,SE,125,12.0,14.0,92,0.00,,,-99.99,,2013-02-17 14:01:00,
2013-02-17 08:11:00,20.0,18.0,-100.00,SE,125,12.0,15.0,92,0.00,,,-99.99,,2013-02-17 14:11:00,
2013-02-17 08:21:00,20.0,19.0,-100.00,SE,125,10.0,14.0,92,0.00,,,-99.99,,2013-02-17 14:21:00,
2013-02-17 08:32:00,21.0,19.0,-100.00,SE,130,9.0,13.0,92,0.00,,,-99.99,,2013-02-17 14:32:00,
2013-02-17 08:42:00,21.0,19.0,-100.00,SE,130,9.0,13.0,92,0.00,,,-99.99,,2013-02-17 14:42:00,
2013-02-17 08:52:00,23.0,21.0,-100.00,SE,135,9.0,14.0,90,0.00,,,-99.99,,2013-02-17 14:52:00,
2013-02-17 09:02:00,23.0,21.0,-100.00,SE,135,9.0,14.0,90,0.00,,,-99.99,,2013-02-17 15:02:00,
2013-02-17 09:11:00,25.0,22.0,-100.00,SE,130,9.0,12.0,89,0.00,,,-99.99,,2013-02-17 15:11:00,
2013-02-17 09:21:00,25.0,22.0,-100.00,SE,130,9.0,12.0,89,0.00,,,-99.99,,2013-02-17 15:21:00,
2013-02-17 09:32:00,28.0,23.0,-100.00,SE,130,11.0,16.0,82,0.00,,,-99.99,,2013-02-17 15:32:00,
2013-02-17 09:41:00,28.0,23.0,-100.00,SE,130,11.0,16.0,82,0.00,,,-99.99,,2013-02-17 15:41:00,
2013-02-17 09:52:00,29.0,24.0,-100.00,SE,125,10.0,16.0,78,0.00,,,-99.99,,2013-02-17 15:52:00,
2013-02-17 10:01:00,29.0,24.0,-100.00,SE,125,10.0,16.0,78,0.00,,,-99.99,,2013-02-17 16:01:00,
2013-02-17 10:11:00,29.0,24.0,-100.00,SE,125,10.0,16.0,78,0.00,,,-99.99,,2013-02-17 16:11:00,
2013-02-17 10:21:00,31.0,24.0,-100.00,SE,125,12.0,17.0,74,0.00,,,-99.99,,2013-02-17 16:21:00,
2013-02-17 10:32:00,34.0,25.0,-100.00,SE,125,13.0,19.0,69,0.00,,,-99.99,,2013-02-17 16:32:00,
2013-02-17 10:41:00,34.0,25.0,-100.00,SE,125,13.0,19.0,69,0.00,,,-99.99,,2013-02-17 16:41:00,
2013-02-17 10:52:00,35.0,24.0,-100.00,SE,145,13.0,19.0,64,0.00,,,-99.99,,2013-02-17 16:52:00,
2013-02-17 11:02:00,35.0,24.0,-100.00,SE,145,13.0,19.0,64,0.00,,,-99.99,,2013-02-17 17:02:00,
2013-02-17 11:11:00,35.0,24.0,-100.00,SE,135,17.0,21.0,62,0.00,,,-99.99,,2013-02-17 17:11:00,
2013-02-17 11:21:00,36.0,24.0,-100.00,SSE,150,15.0,21.0,60,0.00,,,-99.99,,2013-02-17 17:21:00,
2013-02-17 11:32:00,38.0,24.0,-100.00,SE,145,14.0,21.0,57,0.00,,,-99.99,,2013-02-17 17:32:00,
2013-02-17 11:41:00,38.0,24.0,-100.00,SE,145,14.0,21.0,57,0.00,,,-99.99,,2013-02-17 17:41:00,
2013-02-17 11:52:00,39.0,23.0,-100.00,SSE,150,14.0,23.0,53,0.00,,,-99.99,,2013-02-17 17:52:00,
2013-02-17 12:02:00,39.0,23.0,-100.00,SSE,150,14.0,23.0,53,0.00,,,-99.99,,2013-02-17 18:02:00,
2013-02-17 12:11:00,40.0,23.0,-100.00,SE,135,16.0,21.0,51,0.00,,,-99.99,,2013-02-17 18:11:00,
2013-02-17 12:21:00,40.0,23.0,-100.00,SSE,165,16.0,23.0,49,0.00,,,-99.99,,2013-02-17 18:21:00,
2013-02-17 12:33:00,41.0,23.0,-100.00,SE,145,14.0,24.0,47,0.00,,,-99.99,,2013-02-17 18:33:00,
2013-02-17 12:42:00,41.0,23.0,-100.00,SE,145,14.0,24.0,47,0.00,,,-99.99,,2013-02-17 18:42:00,
2013-02-17 12:52:00,43.0,24.0,-100.00,SE,135,16.0,21.0,45,0.00,,,-99.99,,2013-02-17 18:52:00,
2013-02-17 13:01:00,43.0,24.0,-100.00,SE,135,16.0,21.0,45,0.00,,,-99.99,,2013-02-17 19:01:00,
2013-02-17 13:11:00,42.0,22.0,-100.00,SSE,165,16.0,24.0,44,0.00,,,-99.99,,2013-02-17 19:11:00,
2013-02-17 13:21:00,43.0,23.0,-100.00,SE,140,16.0,24.0,44,0.00,,,-99.99,,2013-02-17 19:21:00,
2013-02-17 13:32:00,44.0,23.0,-100.00,SE,145,19.0,26.0,42,0.00,,,-99.99,,2013-02-17 19:32:00,
2013-02-17 13:41:00,44.0,23.0,-100.00,SE,145,19.0,26.0,42,0.00,,,-99.99,,2013-02-17 19:41:00,
2013-02-17 13:51:00,45.0,23.0,-100.00,SE,145,16.0,24.0,41,0.00,,,-99.99,,2013-02-17 19:51:00,
2013-02-17 14:02:00,45.0,23.0,-100.00,SE,145,16.0,24.0,41,0.00,,,-99.99,,2013-02-17 20:02:00,
2013-02-17 14:11:00,45.0,23.0,-100.00,SE,140,17.0,24.0,41,0.00,,,-99.99,,2013-02-17 20:11:00,
2013-02-17 14:21:00,45.0,23.0,-100.00,SE,130,19.0,26.0,41,0.00,,,-99.99,,2013-02-17 20:21:00,
2013-02-17 14:32:00,45.0,23.0,-100.00,SSE,150,18.0,24.0,41,0.00,,,-99.99,,2013-02-17 20:32:00,
2013-02-17 14:42:00,45.0,23.0,-100.00,SSE,150,18.0,24.0,41,0.00,,,-99.99,,2013-02-17 20:42:00,
2013-02-17 14:52:00,46.0,24.0,-100.00,SE,130,19.0,27.0,40,0.00,,,-99.99,,2013-02-17 20:52:00,
2013-02-17 15:01:00,46.0,24.0,-100.00,SE,130,19.0,27.0,40,0.00,,,-99.99,,2013-02-17 21:01:00,
2013-02-17 15:11:00,46.0,23.0,-100.00,SE,145,20.0,25.0,40,0.00,,,-99.99,,2013-02-17 21:11:00,
2013-02-17 15:21:00,46.0,23.0,-100.00,SSE,150,17.0,28.0,40,0.00,,,-99.99,,2013-02-17 21:21:00,
2013-02-17 15:32:00,46.0,23.0,-100.00,SE,145,17.0,27.0,40,0.00,,,-99.99,,2013-02-17 21:32:00,
2013-02-17 15:41:00,46.0,23.0,-100.00,SE,145,17.0,27.0,40,0.00,,,-99.99,,2013-02-17 21:41:00,
2013-02-17 15:52:00,46.0,23.0,-100.00,SSE,150,18.0,26.0,40,0.00,,,-99.99,,2013-02-17 21:52:00,
2013-02-17 16:01:00,46.0,23.0,-100.00,SSE,150,18.0,26.0,40,0.00,,,-99.99,,2013-02-17 22:01:00,
2013-02-17 16:12:00,46.0,23.0,-100.00,SE,145,19.0,25.0,40,0.00,,,-99.99,,2013-02-17 22:12:00,
2013-02-17 16:21:00,46.0,23.0,-100.00,SE,145,14.0,27.0,40,0.00,,,-99.99,,2013-02-17 22:21:00,
2013-02-17 16:32:00,45.0,23.0,-100.00,SE,135,17.0,23.0,41,0.00,,,-99.99,,2013-02-17 22:32:00,
2013-02-17 16:41:00,45.0,23.0,-100.00,SE,135,17.0,23.0,41,0.00,,,-99.99,,2013-02-17 22:41:00,
2013-02-17 16:52:00,44.0,23.0,-100.00,SE,140,15.0,22.0,42,0.00,,,-99.99,,2013-02-17 22:52:00,
2013-02-17 17:02:00,44.0,23.0,-100.00,SE,140,15.0,22.0,42,0.00,,,-99.99,,2013-02-17 23:02:00,
2013-02-17 17:11:00,44.0,23.0,-100.00,SE,135,17.0,22.0,43,0.00,,,-99.99,,2013-02-17 23:11:00,
2013-02-17 17:21:00,43.0,23.0,-100.00,SE,135,16.0,22.0,44,0.00,,,-99.99,,2013-02-17 23:21:00,
2013-02-17 17:32:00,42.0,23.0,-100.00,SE,130,15.0,18.0,45,0.00,,,-99.99,,2013-02-17 23:32:00,
2013-02-17 17:42:00,42.0,23.0,-100.00,SE,130,15.0,18.0,45,0.00,,,-99.99,,2013-02-17 23:42:00,
2013-02-17 17:52:00,41.0,23.0,-100.00,SE,125,14.0,18.0,47,0.00,,,-99.99,,2013-02-17 23:52:00,
2013-02-17 18:01:00,41.0,23.0,-100.00,SE,125,14.0,18.0,47,0.00,,,-99.99,,2013-02-18 00:01:00,
2013-02-17 18:11:00,41.0,23.0,-100.00,SE,130,13.0,18.0,48,0.00,,,-99.99,,2013-02-18 00:11:00,
2013-02-17 18:22:00,40.0,23.0,-100.00,SE,125,12.0,16.0,50,0.00,,,-99.99,,2013-02-18 00:22:00,
2013-02-17 18:31:00,40.0,23.0,-100.00,SE,135,14.0,19.0,52,0.00,,,-99.99,,2013-02-18 00:31:00,
2013-02-17 18:41:00,40.0,23.0,-100.00,SE,135,14.0,19.0,52,0.00,,,-99.99,,2013-02-18 00:41:00,
2013-02-17 18:52:00,40.0,24.0,-100.00,SE,140,16.0,22.0,51,0.00,,,-99.99,,2013-02-18 00:52:00,
2013-02-17 19:01:00,40.0,24.0,-100.00,SE,140,16.0,22.0,51,0.00,,,-99.99,,2013-02-18 01:01:00,
2013-02-17 19:11:00,40.0,23.0,-100.00,SE,135,15.0,24.0,51,0.00,,,-99.99,,2013-02-18 01:11:00,
2013-02-17 19:21:00,40.0,24.0,-100.00,SE,140,17.0,24.0,51,0.00,,,-99.99,,2013-02-18 01:21:00,
2013-02-17 19:31:00,39.0,24.0,-100.00,SE,135,18.0,23.0,53,0.00,,,-99.99,,2013-02-18 01:31:00,
2013-02-17 19:41:00,39.0,24.0,-100.00,SE,135,18.0,23.0,53,0.00,,,-99.99,,2013-02-18 01:41:00,
2013-02-17 19:51:00,37.0,23.0,-100.00,SE,125,17.0,19.0,56,0.00,,,-99.99,,2013-02-18 01:51:00,
2013-02-17 20:01:00,37.0,23.0,-100.00,SE,125,17.0,19.0,56,0.00,,,-99.99,,2013-02-18 02:01:00,
2013-02-17 20:11:00,37.0,23.0,-100.00,SE,130,16.0,21.0,57,0.00,,,-99.99,,2013-02-18 02:11:00,
2013-02-17 20:21:00,37.0,24.0,-100.00,SE,130,15.0,20.0,58,0.00,,,-99.99,,2013-02-18 02:21:00,
2013-02-17 20:32:00,36.0,24.0,-100.00,SE,130,17.0,24.0,60,0.00,,,-99.99,,2013-02-18 02:32:00,
2013-02-17 20:41:00,36.0,24.0,-100.00,SE,130,17.0,24.0,60,0.00,,,-99.99,,2013-02-18 02:41:00,
2013-02-17 20:52:00,36.0,24.0,-100.00,SE,135,14.0,19.0,61,0.00,,,-99.99,,2013-02-18 02:52:00,
2013-02-17 21:01:00,36.0,24.0,-100.00,SE,135,14.0,19.0,61,0.00,,,-99.99,,2013-02-18 03:01:00,
2013-02-17 21:11:00,36.0,24.0,-100.00,SE,135,13.0,19.0,62,0.00,,,-99.99,,2013-02-18 03:11:00,
2013-02-17 21:21:00,36.0,24.0,-100.00,SE,135,12.0,17.0,62,0.00,,,-99.99,,2013-02-18 03:21:00,
2013-02-17 21:31:00,36.0,24.0,-100.00,SE,135,14.0,20.0,62,0.00,,,-99.99,,2013-02-18 03:31:00,
2013-02-17 21:42:00,36.0,24.0,-100.00,SE,135,14.0,20.0,62,0.00,,,-99.99,,2013-02-18 03:42:00,
2013-02-17 21:51:00,35.0,24.0,-100.00,SE,135,15.0,18.0,63,0.00,,,-99.99,,2013-02-18 03:51:00,
2013-02-17 22:01:00,35.0,24.0,-100.00,SE,135,15.0,18.0,63,0.00,,,-99.99,,2013-02-18 04:01:00,
2013-02-17 22:11:00,35.0,24.0,-100.00,SE,130,14.0,19.0,63,0.00,,,-99.99,,2013-02-18 04:11:00,
2013-02-17 22:21:00,35.0,24.0,-100.00,SE,135,14.0,18.0,63,0.00,,,-99.99,,2013-02-18 04:21:00,
2013-02-17 22:32:00,35.0,24.0,-100.00,SE,135,15.0,18.0,64,0.00,,,-99.99,,2013-02-18 04:32:00,
2013-02-17 22:41:00,35.0,24.0,-100.00,SE,135,15.0,18.0,64,0.00,,,-99.99,,2013-02-18 04:41:00,
2013-02-17 22:51:00,34.0,24.0,-100.00,SE,135,13.0,18.0,64,0.00,,,-99.99,,2013-02-18 04:51:00,
2013-02-17 23:02:00,34.0,24.0,-100.00,SE,135,13.0,18.0,64,0.00,,,-99.99,,2013-02-18 05:02:00,
2013-02-17 23:11:00,34.0,24.0,-100.00,SE,135,13.0,18.0,65,0.00,,,-99.99,,2013-02-18 05:11:00,
2013-02-17 23:21:00,34.0,24.0,-100.00,SE,135,13.0,17.0,65,0.00,,,-99.99,,2013-02-18 05:21:00,
2013-02-17 23:31:00,34.0,24.0,-100.00,SE,135,13.0,18.0,65,0.00,,,-99.99,,2013-02-18 05:31:00,
2013-02-17 23:41:00,34.0,24.0,-100.00,SE,135,13.0,18.0,65,0.00,,,-99.99,,2013-02-18 05:41:00,
2013-02-17 23:52:00,34.0,24.0,-100.00,SE,140,11.0,16.0,65,0.00,,,-99.99,,2013-02-18 05:52:00,